EXPRESS 80

Last updated on Thu Nov 21 2024 00:02:44 GMT+0000 (Coordinated Universal Time)

1 45986U 20053B 24324.61348343 -.00000136 00000+0 00000+0 0 9998 2 45986 0.0190 294.9900 0000533 193.8577 231.1751 1.00275526 15877
UTC large
Height (km)
Speed (km/s)
/
Latitude / Longitude
Inclination (degrees)
Orbital Period (minutes)
Azimuth
Elevation
Range (km)
Doppler Factor

Next 0 passes for location: London (51.5072 / 0.1276)

Sorry there are no passes over London.